STARLINK-2739 (48639 NORAD) Tracking and Keplerian Element Data

This shows tracking and keplerian element data for the satellite.

Feedback or suggestion? Click here.




ElementValue
Catalog48639
NameSTARLINK-2739
Epoch Orbit1155
Epoch Day215.25002315
Epoch Year2021
RAAN95.9055
Inclination53.0532
Eccentricity0.0001687
Argument of Perigee77.0855
Mean Anonmoly168.1583
Mean Motion15.06406408
Decay Rate-0.00018324
L11 48639U 21044B 21215.25002315 -.00018324 00000-0 -12142-2 0 9992
L22 48639 53.0532 95.9055 0001687 77.0855 168.1583 15.06406408 11555

Live tracking and technical data element details for STARLINK-2739 (NORAD 48639). STARLINK-2739 can be tracked NOW for your location showing map with azimuth and elevation plus other details from your city location.

Track the satellite on the map from your city or location and see movement details for azimuth, elevation, latitude, longitude, range, height, and movement on the map or in text.







IsCatalogInMostPopularTable: catalog: 48639, numindb: 12
Update: records affected: 1



GetName: 48639 STARLINK-2739

Hit Count: updated at: Wed, 04 Aug 2021 00:56:58 GMT